Time,TemperatureF,DewpointF,PressureIn,WindDirection,WindDirectionDegrees,WindSpeedMPH,WindSpeedGustMPH,Humidity,HourlyPrecipIn,Conditions,Clouds,dailyrainin,SolarRadiationWatts/m^2,SoftwareType,DateUTC
2013-10-08 00:02:00,41.0,32.0,-100.00,SW,229,7.0,15.0,71,0.00,,,0.00,0.000000,,2013-10-08 07:02:00,
2013-10-08 00:42:00,41.0,32.0,-100.00,SW,229,7.0,15.0,71,0.00,,,0.00,0.000000,,2013-10-08 07:42:00,
2013-10-08 00:52:00,41.0,32.0,-100.00,SW,229,7.0,15.0,71,0.00,,,0.00,0.000000,,2013-10-08 07:52:00,
2013-10-08 01:02:00,41.0,33.0,-100.00,SW,215,8.0,11.0,73,0.00,,,0.00,0.000000,,2013-10-08 08:02:00,
2013-10-08 01:22:00,41.0,33.0,-100.00,SW,215,8.0,11.0,73,0.00,,,0.00,0.000000,,2013-10-08 08:22:00,
2013-10-08 01:32:00,41.0,33.0,-100.00,SW,215,8.0,11.0,73,0.00,,,0.00,0.000000,,2013-10-08 08:32:00,
2013-10-08 01:42:00,41.0,33.0,-100.00,SW,215,8.0,11.0,73,0.00,,,0.00,0.000000,,2013-10-08 08:42:00,
2013-10-08 01:52:00,41.0,33.0,-100.00,SW,215,8.0,11.0,73,0.00,,,0.00,0.000000,,2013-10-08 08:52:00,
2013-10-08 02:02:00,40.0,33.0,-100.00,SSW,204,7.0,13.0,76,0.00,,,-99.99,0.000000,,2013-10-08 09:02:00,
2013-10-08 02:22:00,40.0,33.0,-100.00,SSW,204,7.0,13.0,76,0.00,,,-99.99,0.000000,,2013-10-08 09:22:00,
2013-10-08 02:33:00,40.0,33.0,-100.00,SSW,204,7.0,13.0,76,0.00,,,-99.99,0.000000,,2013-10-08 09:33:00,
2013-10-08 02:43:00,40.0,33.0,-100.00,SSW,204,7.0,13.0,76,0.00,,,-99.99,0.000000,,2013-10-08 09:43:00,
2013-10-08 02:53:00,40.0,33.0,-100.00,SSW,204,7.0,13.0,76,0.00,,,-99.99,0.000000,,2013-10-08 09:53:00,
2013-10-08 03:02:00,40.0,32.0,-100.00,SSW,211,8.0,16.0,73,0.00,,,0.00,0.000000,,2013-10-08 10:02:00,
2013-10-08 03:42:00,40.0,32.0,-100.00,SSW,211,8.0,16.0,73,0.00,,,0.00,0.000000,,2013-10-08 10:42:00,
2013-10-08 03:53:00,40.0,32.0,-100.00,SSW,211,8.0,16.0,73,0.00,,,0.00,0.000000,,2013-10-08 10:53:00,
2013-10-08 04:22:00,40.0,31.0,-100.00,SSW,204,8.0,12.0,71,0.00,,,0.00,0.000000,,2013-10-08 11:22:00,
2013-10-08 04:33:00,40.0,31.0,-100.00,SSW,204,8.0,12.0,71,0.00,,,0.00,0.000000,,2013-10-08 11:33:00,
2013-10-08 04:42:00,40.0,31.0,-100.00,SSW,204,8.0,12.0,71,0.00,,,0.00,0.000000,,2013-10-08 11:42:00,
2013-10-08 04:52:00,40.0,31.0,-100.00,SSW,204,8.0,12.0,71,0.00,,,0.00,0.000000,,2013-10-08 11:52:00,
2013-10-08 05:01:00,40.0,31.0,-100.00,SSW,204,8.0,12.0,71,0.00,,,0.00,0.000000,,2013-10-08 12:01:00,
2013-10-08 05:42:00,41.0,32.0,-100.00,SSW,203,8.0,14.0,70,0.00,,,0.00,0.000000,,2013-10-08 12:42:00,
2013-10-08 05:52:00,41.0,32.0,-100.00,SSW,203,8.0,14.0,70,0.00,,,0.00,0.000000,,2013-10-08 12:52:00,
2013-10-08 06:01:00,41.0,32.0,-100.00,SSW,203,8.0,14.0,70,0.00,,,0.00,0.000000,,2013-10-08 13:01:00,
2013-10-08 06:02:00,40.0,32.0,-100.00,SSW,203,8.0,12.0,73,0.00,,,0.00,0.000000,,2013-10-08 13:02:00,
2013-10-08 06:42:00,40.0,32.0,-100.00,SSW,203,8.0,12.0,73,0.00,,,0.00,0.000000,,2013-10-08 13:42:00,
2013-10-08 06:52:00,40.0,32.0,-100.00,SSW,203,8.0,12.0,73,0.00,,,0.00,0.000000,,2013-10-08 13:52:00,
2013-10-08 07:42:00,40.0,32.0,-100.00,SW,235,8.0,12.0,73,0.00,,,0.00,1.000000,,2013-10-08 14:42:00,
2013-10-08 07:52:00,40.0,32.0,-100.00,SW,235,8.0,12.0,73,0.00,,,0.00,1.000000,,2013-10-08 14:52:00,
2013-10-08 08:01:00,40.0,32.0,-100.00,SW,235,8.0,12.0,73,0.00,,,0.00,1.000000,,2013-10-08 15:01:00,
2013-10-08 08:02:00,38.0,31.0,-100.00,West,262,4.0,10.0,76,0.00,,,0.00,16.000000,,2013-10-08 15:02:00,
2013-10-08 08:44:00,38.0,31.0,-100.00,West,262,4.0,10.0,76,0.00,,,0.00,16.000000,,2013-10-08 15:44:00,
2013-10-08 08:53:00,38.0,31.0,-100.00,West,262,4.0,10.0,76,0.00,,,0.00,16.000000,,2013-10-08 15:53:00,
2013-10-08 09:02:00,44.0,33.0,-100.00,SSW,213,8.0,11.0,66,0.00,,,0.00,75.000000,,2013-10-08 16:02:00,
2013-10-08 09:42:00,44.0,33.0,-100.00,SSW,213,8.0,11.0,66,0.00,,,0.00,75.000000,,2013-10-08 16:42:00,
2013-10-08 09:53:00,44.0,33.0,-100.00,SSW,213,8.0,11.0,66,0.00,,,0.00,75.000000,,2013-10-08 16:53:00,
2013-10-08 10:42:00,46.0,32.0,-100.00,SW,221,9.0,14.0,59,0.00,,,0.00,171.000000,,2013-10-08 17:42:00,
2013-10-08 10:52:00,46.0,32.0,-100.00,SW,221,9.0,14.0,59,0.00,,,0.00,171.000000,,2013-10-08 17:52:00,
2013-10-08 11:01:00,46.0,32.0,-100.00,SW,221,9.0,14.0,59,0.00,,,0.00,171.000000,,2013-10-08 18:01:00,
2013-10-08 11:02:00,47.0,33.0,-100.00,SSW,213,9.0,13.0,58,0.00,,,0.00,236.000000,,2013-10-08 18:02:00,
2013-10-08 11:22:00,47.0,33.0,-100.00,SSW,213,9.0,13.0,58,0.00,,,0.00,236.000000,,2013-10-08 18:22:00,
2013-10-08 11:32:00,47.0,33.0,-100.00,SSW,213,9.0,13.0,58,0.00,,,0.00,236.000000,,2013-10-08 18:32:00,
2013-10-08 11:42:00,47.0,33.0,-100.00,SSW,213,9.0,13.0,58,0.00,,,0.00,236.000000,,2013-10-08 18:42:00,
2013-10-08 11:53:00,47.0,33.0,-100.00,SSW,213,9.0,13.0,58,0.00,,,0.00,236.000000,,2013-10-08 18:53:00,
2013-10-08 12:02:00,47.0,33.0,-100.00,SW,225,8.0,14.0,57,0.00,,,0.00,216.000000,,2013-10-08 19:02:00,
2013-10-08 12:22:00,47.0,33.0,-100.00,SW,225,8.0,14.0,57,0.00,,,0.00,216.000000,,2013-10-08 19:22:00,
2013-10-08 12:32:00,47.0,33.0,-100.00,SW,225,8.0,14.0,57,0.00,,,0.00,216.000000,,2013-10-08 19:32:00,
2013-10-08 12:42:00,47.0,33.0,-100.00,SW,225,8.0,14.0,57,0.00,,,0.00,216.000000,,2013-10-08 19:42:00,
2013-10-08 12:52:00,47.0,33.0,-100.00,SW,225,8.0,14.0,57,0.00,,,0.00,216.000000,,2013-10-08 19:52:00,
2013-10-08 13:22:00,48.0,34.0,-100.00,WSW,237,11.0,16.0,59,0.00,,,0.00,162.000000,,2013-10-08 20:22:00,
2013-10-08 13:32:00,48.0,34.0,-100.00,WSW,237,11.0,16.0,59,0.00,,,0.00,162.000000,,2013-10-08 20:32:00,
2013-10-08 13:42:00,48.0,34.0,-100.00,WSW,237,11.0,16.0,59,0.00,,,0.00,162.000000,,2013-10-08 20:42:00,
2013-10-08 13:52:00,48.0,34.0,-100.00,WSW,237,11.0,16.0,59,0.00,,,0.00,162.000000,,2013-10-08 20:52:00,
2013-10-08 14:01:00,48.0,34.0,-100.00,WSW,237,11.0,16.0,59,0.00,,,0.00,162.000000,,2013-10-08 21:01:00,
2013-10-08 14:02:00,47.0,35.0,-100.00,WSW,249,6.0,16.0,62,0.00,,,0.00,98.000000,,2013-10-08 21:02:00,
2013-10-08 14:22:00,47.0,35.0,-100.00,WSW,249,6.0,16.0,62,0.00,,,0.00,98.000000,,2013-10-08 21:22:00,
2013-10-08 14:34:00,47.0,35.0,-100.00,WSW,249,6.0,16.0,62,0.00,,,0.00,98.000000,,2013-10-08 21:34:00,
2013-10-08 14:44:00,47.0,35.0,-100.00,WSW,249,6.0,16.0,62,0.00,,,0.00,98.000000,,2013-10-08 21:44:00,
2013-10-08 14:54:00,47.0,35.0,-100.00,WSW,249,6.0,16.0,62,0.00,,,0.00,98.000000,,2013-10-08 21:54:00,
2013-10-08 15:02:00,47.0,35.0,-100.00,WSW,252,12.0,18.0,62,0.00,,,0.00,83.000000,,2013-10-08 22:02:00,
2013-10-08 15:48:00,47.0,35.0,-100.00,WSW,252,12.0,18.0,62,0.00,,,0.00,83.000000,,2013-10-08 22:48:00,
2013-10-08 15:57:00,47.0,35.0,-100.00,WSW,252,12.0,18.0,62,0.00,,,0.00,83.000000,,2013-10-08 22:57:00,
2013-10-08 16:02:00,48.0,34.0,-100.00,WSW,257,13.0,20.0,58,0.00,,,0.00,168.000000,,2013-10-08 23:02:00,
2013-10-08 16:23:00,48.0,34.0,-100.00,WSW,257,13.0,20.0,58,0.00,,,0.00,168.000000,,2013-10-08 23:23:00,
2013-10-08 16:34:00,48.0,34.0,-100.00,WSW,257,13.0,20.0,58,0.00,,,0.00,168.000000,,2013-10-08 23:34:00,
2013-10-08 16:42:00,48.0,34.0,-100.00,WSW,257,13.0,20.0,58,0.00,,,0.00,168.000000,,2013-10-08 23:42:00,
2013-10-08 16:52:00,48.0,34.0,-100.00,WSW,257,13.0,20.0,58,0.00,,,0.00,168.000000,,2013-10-08 23:52:00,
2013-10-08 17:22:00,48.0,34.0,-100.00,West,270,11.0,19.0,59,0.00,,,0.00,241.000000,,2013-10-09 00:22:00,
2013-10-08 17:32:00,48.0,34.0,-100.00,West,270,11.0,19.0,59,0.00,,,0.00,241.000000,,2013-10-09 00:32:00,
2013-10-08 17:43:00,48.0,34.0,-100.00,West,270,11.0,19.0,59,0.00,,,0.00,241.000000,,2013-10-09 00:43:00,
2013-10-08 17:52:00,48.0,34.0,-100.00,West,270,11.0,19.0,59,0.00,,,0.00,241.000000,,2013-10-09 00:52:00,
2013-10-08 18:01:00,48.0,34.0,-100.00,West,270,11.0,19.0,59,0.00,,,0.00,241.000000,,2013-10-09 01:01:00,
2013-10-08 18:02:00,46.0,35.0,-100.00,WSW,258,7.0,17.0,65,0.00,,,-99.99,33.000000,,2013-10-09 01:02:00,
2013-10-08 18:43:00,46.0,35.0,-100.00,WSW,258,7.0,17.0,65,0.00,,,-99.99,33.000000,,2013-10-09 01:43:00,
2013-10-08 18:52:00,46.0,35.0,-100.00,WSW,258,7.0,17.0,65,0.00,,,-99.99,33.000000,,2013-10-09 01:52:00,
2013-10-08 19:02:00,41.0,38.0,-100.00,North,7,5.0,15.0,88,0.01,,,0.01,9.000000,,2013-10-09 02:02:00,
2013-10-08 19:23:00,41.0,38.0,-100.00,North,7,5.0,15.0,88,0.01,,,0.01,9.000000,,2013-10-09 02:23:00,
2013-10-08 19:32:00,41.0,38.0,-100.00,North,7,5.0,15.0,88,0.01,,,0.01,9.000000,,2013-10-09 02:32:00,
2013-10-08 19:42:00,41.0,38.0,-100.00,North,7,5.0,15.0,88,0.01,,,0.01,9.000000,,2013-10-09 02:42:00,
2013-10-08 19:52:00,41.0,38.0,-100.00,North,7,5.0,15.0,88,0.01,,,0.01,9.000000,,2013-10-09 02:52:00,
2013-10-08 20:02:00,40.0,36.0,-100.00,NNE,25,8.0,17.0,85,0.00,,,0.01,1.000000,,2013-10-09 03:02:00,
2013-10-08 20:45:00,40.0,36.0,-100.00,NNE,25,8.0,17.0,85,0.00,,,0.01,1.000000,,2013-10-09 03:45:00,
2013-10-08 20:54:00,40.0,36.0,-100.00,NNE,25,8.0,17.0,85,0.00,,,0.01,1.000000,,2013-10-09 03:54:00,
2013-10-08 21:02:00,38.0,34.0,-100.00,NE,56,7.0,17.0,86,0.00,,,0.01,1.000000,,2013-10-09 04:02:00,
2013-10-08 21:24:00,38.0,34.0,-100.00,NE,56,7.0,17.0,86,0.00,,,0.01,1.000000,,2013-10-09 04:24:00,
2013-10-08 21:34:00,38.0,34.0,-100.00,NE,56,7.0,17.0,86,0.00,,,0.01,1.000000,,2013-10-09 04:34:00,
2013-10-08 21:44:00,38.0,34.0,-100.00,NE,56,7.0,17.0,86,0.00,,,0.01,1.000000,,2013-10-09 04:44:00,
2013-10-08 21:54:00,38.0,34.0,-100.00,NE,56,7.0,17.0,86,0.00,,,0.01,1.000000,,2013-10-09 04:54:00,
2013-10-08 22:02:00,36.0,32.0,-100.00,ENE,66,3.0,9.0,84,0.00,,,0.01,1.000000,,2013-10-09 05:02:00,
2013-10-08 22:22:00,36.0,32.0,-100.00,ENE,66,3.0,9.0,84,0.00,,,0.01,1.000000,,2013-10-09 05:22:00,
2013-10-08 22:34:00,36.0,32.0,-100.00,ENE,66,3.0,9.0,84,0.00,,,0.01,1.000000,,2013-10-09 05:34:00,
2013-10-08 22:42:00,36.0,32.0,-100.00,ENE,66,3.0,9.0,84,0.00,,,0.01,1.000000,,2013-10-09 05:42:00,
2013-10-08 22:52:00,36.0,32.0,-100.00,ENE,66,3.0,9.0,84,0.00,,,0.01,1.000000,,2013-10-09 05:52:00,
2013-10-08 23:22:00,37.0,32.0,-100.00,ENE,61,5.0,8.0,83,0.00,,,0.01,1.000000,,2013-10-09 06:22:00,
2013-10-08 23:33:00,37.0,32.0,-100.00,ENE,61,5.0,8.0,83,0.00,,,0.01,1.000000,,2013-10-09 06:33:00,
2013-10-08 23:42:00,37.0,32.0,-100.00,ENE,61,5.0,8.0,83,0.00,,,0.01,1.000000,,2013-10-09 06:42:00,
2013-10-08 23:52:00,37.0,32.0,-100.00,ENE,61,5.0,8.0,83,0.00,,,0.01,1.000000,,2013-10-09 06:52:00,